星链-4461 (STARLINK-4461 )

导读 | 星芒AI

STARLINK-4461 是 SpaceX Starlink 卫星互联网项目中的一颗低轨卫星,属于“星链”计划的数千颗卫星之一。该卫星旨在为全球用户提供高速、低延迟的互联网服务,尤其关注偏远和网络覆盖不足的地区。它运行在约 550 公里的轨道高度,配备先进通信设备,支持 Ku 和 Ka 频段传输。作为 Starlink 群体的一部分,STARLINK-4461 有助于构建全球宽带网络,提升全球互联网接入能力。

基本信息
目录编号:
53503
目录名称:
STARLINK-4461
国际标识:
2022-099AQ
轨道中心:
EARTH
卫星名称:
星链-4461
卫星全名:
星链-4461 (STARLINK-4461 )
卫星状态:
在轨 (已飞行1181 天)
发射日期:
2022-08-12 UTC
国别 :
美国 (US)
星等 :
--
轨道信息
数据来源 国际轨道数据
星历时间: 2025-11-05T03:04:21+0800
8小时前
查看轨道信息
半长轴: 6711.265km
偏心率: 0.0001431
轨道倾角: 97.651°
近地点辐角 330.371°
升交点赤经 77.748°
平近点角 29.747°
近地点: 332.169km
远地点: 334.091km
周期: 91.194分钟
每日圈数: 15.790513
详细信息
固有亮度:
5
最大亮度:
2.5
卫星平台:
Starlink v1.5
覆盖范围:
全球
运营商:
太空探索技术公司
运营商所在国:
美国
制造商(研发单位):
太空探索技术公司
制造商所在国:
美国
使用方式:
暂无
卫星简介
星链(Starlink)计划是由太空探索技术公司(SpaceX)提出的一个巨型低轨卫星互联网星座项目,计划在2019年至2024年间在太空搭建由约1.2万颗卫星组成的“星链”网络,其中1584颗将部署在地球上空550千米处的近地轨道,并从2020年开始工作。该卫星仍在工作。
2D轨道图
3D轨道图
轨道高度分析图
轨道倾角分析图
轨道综合分析图
查看轨道综合分析图